Other Surface Observations
Issued by NWS

Home | Current Version | Previous Version | Text Only | Print | Product List | Glossary On
Versions: 1 2 3 4 5 6 7 8 9 10 11 12 13 14 15 16 17 18 19 20 21 22 23 24 25 26 27 28 29 30 31 32 33 34 35 36 37 38 39 40 41 42 43 44 45 46 47 48 49 50
000
SXUS52 KTAE 210218
OSOTAE
OSOTAE
North Florida/South Alabama/Southwest Georgia Weather Roundup
National Weather Service Tallahassee Florida
1000 PM EDT WED AUG 20 2014

Note: "fair" indicates few or no clouds below 12,000 feet with no
significant weather and/or obstructions to visibility.

!FLZ017-115-028-034-025-210300
...North Florida...

CITY           SKY/WX    TMP DP  RH WIND       PRES   REMARKS
TALLAHASSEE    PTCLDY    82  73  74 CALM      30.08R
APALACHICOLA   CLEAR     82  75  79 CALM      30.09R
PERRY          CLEAR     79  77  94 CALM      30.08R
CROSS CITY       N/A     82  76  81 SW3       30.08R
HOMERVILLE     FAIR      81  72  74 NW5       30.08R
JACKSONVILLE   PTCLDY    81  75  82 W5        30.05R
$$

!FLZ112-006-005-002-011-210300
...Florida Panhandle...

CITY           SKY/WX    TMP DP  RH WIND       PRES   REMARKS
MARIANNA       PTCLDY    78  75  90 CALM      30.08R
BONIFAY        FAIR      76  74  93 CALM      30.10
PANAMA CITY NW FAIR      79  75  87 CALM      30.08R
TYNDALL AFB    CLEAR     83  77  81 W5        30.10R HX  93
TYND DRONE APT FAIR      83  78  85 VRB5      30.08R HX  92
DE FUNIAK SPR  FAIR      74  73  95 CALM      30.10R
EGLIN AFB      MOCLDY    77  76  95 CALM      30.09R
DESTIN         MOCLDY    86  77  74 SW6       30.08R HX  97
HURLBURT       CLOUDY    85  74  69 W3        30.08R HX  91
CRESTVIEW      MOCLDY    77  74  90 CALM      30.10R
PENSACOLA      MOCLDY    82  74  76 SW6       30.08R
$$

!ALZ063-066-210300
...South Alabama...

CITY           SKY/WX    TMP DP  RH WIND       PRES   REMARKS
DOTHAN         CLEAR     79  72  79 SW6       30.12R
OZARK CAIRNS   CLEAR     77  73  87 SW6       30.10R
FT RUCKER HELI CLEAR     79  72  79 W5        30.08R
RUCKER HELI 3  FAIR      80  73  79 SW5       30.12R
RUCKER HELI 2  FAIR      78  72  81 W3        30.09R
FLORALA APT    PTCLDY    78  73  84 CALM      30.12R
ANDALUSIA      CLEAR     79  73  82 CALM      30.10R
TROY           CLEAR     79  75  87 SW3       30.10R
EUFALA         FAIR      81  74  79 CALM      30.06R
MOBILE         PTCLDY    81  76  84 SW6       30.09R
$$

!GAZ120>161-210300
...Southwest and South Central Georgia...

CITY           SKY/WX    TMP DP  RH WIND       PRES   REMARKS
THOMASVILLE    FAIR      82  77  83 CALM      30.09R HX  91
BAINBRIDGE     CLEAR     81  75  83 SW3       30.08R
MOODY AFB      PTCLDY    81  70  69 NW1       30.07R
VALDOSTA       CLEAR     80  72  76 CALM      30.08R
MOULTRIE       PTCLDY    81  72  74 SW3       30.09R
BLAKELY        CLEAR     82  73  74 W5          N/A
ALBANY         MOCLDY    80  70  71 SW5       30.09R
TIFTON         FAIR      74  72  93 CALM      30.07R
FITZGERALD     FAIR     N/A N/A N/A CALM      30.09R
CORDELE        FAIR      76  74  92 CALM      30.08R
AMERICUS       FAIR      77  70  78 CALM      30.10R
$$

!GMZ750-755-770-775-210300
...Coastal and Buoy Obs...

STATION/POSITION TIME  TEMP    WIND        PRES    VSBY  WAVE
                       AIR SEA DIR/SP/G                  HT/PER
                 (UTC) (F)     (DEG/KT/KT) (MB)    (MI)  (FT/S)
KEATON BEACH     0200   86     260/ 12/ 14 1018.6R
CEDAR KEY        0200   85     300/  4/  6 1019.1R
C TOWER          0200   84     280/  7/  7 1019.0R
APALACHICOLA BUO 0200   86 86  270/  6/  6 1018.8R         1/ 4
PANAMA CITY BUOY 0105   86 88  220/  4/  4 1018.9R         1/ 5
MOBILE BUOY      0129   86 89  210/  6/  8 1018.6R
ORANGE BCH AL BU 0200   86 86  240/ 10/ 12 1018.2R         1/ 6
$$



USA.gov is the U.S. government's official web portal to all federal, state and local government web resources and services.